Location: Bacea
(45.9500°N, 22.6667°E)
Time: 07:09:12
(UTC+00:00)

Okean 1 Rocket - Visible Passes

Search period start: 21 May 2022 00:00
Search period end: 31 May 2022 00:00
Orbit: 605 x 635 km, 82.5° (Epoch: 20 May)

Date Brightness Start Highest point End Pass type
(mag) Time Alt. Az. Time Alt. Az. Time Alt. Az.
21 May 5.2 22:32:21 10° NNE 22:35:31 19° ENE 22:37:14 16° E visible
22 May 3.5 00:09:26 10° NNW 00:13:38 45° W 00:14:22 41° WSW visible
22 May 4.4 22:49:24 10° N 22:53:24 32° ENE 22:54:37 27° ESE visible
23 May 4.3 00:27:32 10° NNW 00:31:09 25° W 00:31:47 24° WSW visible
23 May 3.4 23:06:49 10° N 23:11:11 58° ENE 23:12:02 48° ESE visible
24 May 5.0 00:46:10 10° NW 00:48:33 14° W 00:49:12 14° W visible
24 May 5.6 21:48:39 10° NE 21:50:23 12° ENE 21:52:07 10° E visible
24 May 2.9 23:24:26 10° NNW 23:28:52 77° W 23:29:28 64° SSW visible
25 May 5.0 22:05:02 10° NNE 22:08:22 20° ENE 22:09:45 18° E visible
25 May 3.6 23:42:16 10° NNW 23:46:27 41° W 23:46:55 40° WSW visible
26 May 4.2 22:22:09 10° N 22:26:14 35° ENE 22:27:13 31° ESE visible
27 May 4.5 00:00:25 10° NW 00:03:56 24° W 00:04:22 23° W visible
27 May 3.2 22:39:35 10° N 22:44:00 63° E 22:44:40 55° ESE visible
28 May 5.2 00:19:11 10° NW 00:21:20 13° W 00:21:50 13° W visible
28 May 5.5 21:21:09 10° NE 21:23:15 13° ENE 21:24:59 11° E visible
28 May 3.0 22:57:14 10° NNW 23:01:40 71° W 23:02:09 64° SW visible
29 May 4.8 21:37:43 10° NNE 21:41:12 22° ENE 21:42:29 20° E visible
29 May 3.8 23:15:06 10° NNW 23:19:14 38° W 23:19:39 37° WSW visible
30 May 4.0 21:54:54 10° N 21:59:04 38° ENE 21:59:59 34° ESE visible
30 May 4.6 23:33:17 10° NW 23:36:42 22° W 23:37:09 22° W visible
